Flag Weather past 2 weeks in Thiruvananthapuram, Kerala, India

Now
77 °F

Drizzle. Mostly cloudy.


Feels Like: 78 °F
Forecast: 76 / 85 °F
Wind: No wind

Location: Thiruvananthapuram

Current Time: Nov 29, 2014 at 6:50:21 AM

Latest Report: Nov 29, 2014 at 6:10 AM


Visibility: 2 mi

Pressure: 29.83 "Hg

Humidity: 94%

Dew point: 75 °F

Location of ThiruvananthapuramLocation

Historic Weather in Thiruvananthapuram — Graph

°F

Thiruvananthapuram temperature yesterday

Maximum temperature yesterday: 84 °F (at 11:10 AM)
Minimum temperature yesterday: 77 °F (at 1:10 AM)
Average temperature yesterday: 80 °F

Past Weeks' High & Low Weather Summary

 TemperatureHumidityPressure
High90 °F (Nov 16, 12:10 PM)94% (Nov 16, 2:40 AM)29.92 "Hg (Nov 16, 2:40 AM)
Low77 °F (Nov 14, 5:10 AM)55% (Nov 25, 1:40 PM)29.68 "Hg (Nov 26, 1:40 PM)
Average81 °F81%29.80 "Hg
* Reported Nov 14 5:10 AM — Nov 29 5:10 AM, Thiruvananthapuram, Weather by CustomWeather, © 2014

Note: Actual official high and low records may vary slightly from our data, if they occured in-between our weather recording intervals... More about our weather records

Advertising

Thiruvananthapuram weather history for previous 24 hours

 ConditionsComfort  
Time TempWeatherWind HumidityBarometerVisibility
5:10 AM
Nov 29
77 °FDrizzle. Mostly cloudy.No wind94%29.80 "Hg2 mi
4:40 AM77 °FDrizzle. Mostly cloudy.No wind94%29.80 "Hg2 mi
4:10 AM77 °FDrizzle. Mostly cloudy.No wind94%29.80 "Hg2 mi
3:40 AM77 °FLight rain. Mostly cloudy.No wind94%29.80 "Hg2 mi
3:10 AM77 °FLight rain. Mostly cloudy.No wind89%29.80 "Hg2 mi
2:40 AM77 °FLight rain. Mostly cloudy.No wind89%29.80 "Hg2 mi
1:40 AM77 °FLight rain. Mostly cloudy.No wind89%29.80 "Hg2 mi
12:40 AM77 °FLight rain. Mostly cloudy.5 mph89%29.83 "Hg2 mi
11:40 PM
Nov 28
79 °FMostly cloudy.3 mph89%29.83 "Hg2 mi
10:40 PM79 °FMostly cloudy.No wind89%29.86 "Hg2 mi
10:10 PM79 °FDrizzle. Mostly cloudy.No wind89%29.86 "Hg2 mi
9:10 PM81 °FMostly cloudy.No wind89%29.86 "Hg2 mi
8:40 PM81 °FMostly cloudy.No wind89%29.83 "Hg2 mi
8:10 PM81 °FMostly cloudy.No wind89%29.83 "Hg2 mi
7:40 PM81 °FMostly cloudy.No wind89%29.83 "Hg2 mi
7:10 PM81 °FMostly cloudy.No wind89%29.80 "Hg2 mi
6:40 PM81 °FMostly cloudy.No wind89%29.80 "Hg2 mi
5:10 PM82 °FDrizzle. More clouds than sun.5 mph84%29.77 "Hg2 mi
4:40 PM82 °FDrizzle. Cloudy.5 mph84%29.77 "Hg2 mi
4:10 PM82 °FDrizzle. Cloudy.No wind84%29.77 "HgN/A
3:40 PM82 °FMore clouds than sun.6 mph84%29.74 "Hg2 mi
3:10 PM82 °FMore clouds than sun.5 mph84%29.74 "Hg2 mi
2:40 PM84 °FMore clouds than sun.5 mph79%29.74 "Hg2 mi
2:10 PM84 °FMore clouds than sun.6 mph79%29.77 "Hg2 mi
1:40 PM84 °FMore clouds than sun.3 mph79%29.77 "Hg2 mi
1:10 PM84 °FMore clouds than sun.5 mph70%29.77 "Hg2 mi
12:40 PM84 °FMore clouds than sun.6 mph79%29.80 "Hg2 mi
12:10 PM84 °FBroken clouds.5 mph79%29.80 "Hg2 mi
11:40 AM84 °FBroken clouds.5 mph79%29.83 "Hg2 mi
11:10 AM84 °FBroken clouds.5 mph79%29.83 "Hg2 mi
10:40 AM82 °FBroken clouds.3 mph84%29.83 "Hg2 mi
10:10 AM82 °FBroken clouds.3 mph79%29.86 "Hg2 mi
9:40 AM81 °FBroken clouds.3 mph84%29.86 "Hg2 mi
8:40 AM79 °FBroken clouds.3 mph89%29.86 "Hg2 mi
7:40 AM77 °FBroken clouds.5 mph89%29.80 "Hg1 mi
6:40 AM77 °FPartly cloudy.3 mph89%29.77 "Hg1 mi
6:10 AM77 °FPartly cloudy.3 mph89%29.77 "Hg1 mi
Weather by CustomWeather, © 2014

See weather overviewHow to use our weather pages